GFSNW_250_rhum_036.txt.gz
RH
12 9 8 6 8 8 6 6 6 5 7 7 7 10 20 29 44 68 58 67 71 62 76 84 85 84 80 85 82 76 72 66 68 73 74 80 83 85 90 87 99 84 72 100
13 12 9 8 8 9 7 7 9 6 8 9 8 13 26 45 75 74 81 96 99 97 100 100 95 80 83 78 68 61 55 58 58 64 68 68 64 71 77 85 86 89 88 85
11 13 11 9 9 10 9 8 10 8 9 11 12 15 25 52 74 84 95 97 90 94 94 89 98 98 100 94 91 98 91 95 92 99 95 89 88 97 99 96 98 81 86 73
11 12 12 10 10 10 11 10 11 13 9 14 15 17 30 46 64 81 86 89 99 98 88 93 100 100 100 99 94 90 86 94 100 86 85 86 85 88 90 96 89 82 74 70
11 13 12 12 12 11 11 11 12 15 10 15 20 22 24 49 72 74 81 85 91 92 88 93 96 92 96 97 89 91 94 93 76 64 62 67 78 87 86 88 84 99 68 63
11 13 12 13 12 11 11 13 14 16 16 15 25 27 31 42 54 65 78 92 98 96 90 92 91 94 100 88 68 63 63 65 75 83 84 83 82 71 89 83 85 75 85 74
12 14 12 14 12 11 12 13 14 16 20 17 23 33 35 39 50 66 85 98 97 86 90 93 99 100 97 89 92 90 90 86 74 80 86 82 79 80 78 88 98 85 90 100
12 15 13 14 13 12 11 10 14 16 19 23 20 30 35 43 49 69 82 89 92 81 94 96 99 100 100 100 94 90 90 84 80 83 79 74 86 83 71 66 90 98 94 100
13 14 13 14 14 13 12 11 11 12 18 21 25 22 34 40 52 64 78 84 85 82 90 92 97 100 100 100 100 96 93 92 89 84 72 79 83 98 76 84 86 99 86 100
14 14 12 14 16 15 13 11 11 10 14 19 22 24 19 29 57 59 68 77 84 81 84 86 86 93 100 100 100 99 99 92 87 84 73 75 82 83 80 86 91 100 84 86
14 13 13 13 15 15 13 13 12 12 10 14 20 24 22 18 33 62 67 70 76 80 84 88 86 91 93 99 100 99 91 83 90 82 79 91 96 80 80 95 100 89 83 79
12 13 13 13 15 14 14 12 12 12 10 9 13 18 29 15 18 34 64 72 76 77 76 85 86 82 90 98 100 100 93 87 79 72 80 97 96 73 91 99 89 81 68 70
11 12 12 12 14 13 13 12 12 12 11 10 12 16 20 25 12 18 47 84 93 85 75 76 87 92 90 99 100 100 98 99 88 92 84 83 84 79 91 100 92 79 80 58
10 11 10 11 12 11 12 10 10 10 10 11 12 14 16 22 11 16 24 67 89 98 84 75 78 86 90 93 95 93 80 72 69 72 67 70 80 96 96 87 85 62 59 55
9 9 10 9 11 10 9 8 8 8 8 9 11 11 13 14 10 14 18 34 76 100 93 85 78 80 90 97 83 86 86 68 67 62 69 82 94 92 74 91 84 74 66 71
8 9 9 8 9 9 7 7 7 7 6 8 7 5 6 8 9 13 18 19 43 91 99 92 87 83 90 91 68 85 99 90 92 79 71 70 77 78 72 91 93 83 86 81
8 8 8 8 8 8 8 7 7 6 7 8 5 4 5 7 8 14 19 20 23 58 100 100 97 95 86 84 72 100 83 91 87 75 64 70 77 70 82 94 91 82 92 72
8 8 9 8 7 9 9 9 8 7 9 6 4 5 6 7 10 15 19 20 22 29 71 100 100 100 94 83 86 94 78 68 73 73 85 96 86 80 90 91 80 76 67 79
8 8 10 8 8 8 9 8 8 8 10 7 5 6 7 10 14 19 20 20 22 23 37 92 100 100 97 91 91 91 80 74 69 69 69 79 92 85 84 74 75 67 68 88
8 10 11 9 9 9 9 9 10 11 12 7 8 8 11 14 19 21 22 21 22 25 28 62 95 100 100 94 94 100 93 88 81 80 81 83 82 82 85 71 62 65 80 80
9 10 12 12 12 11 13 13 12 13 14 12 9 11 14 19 20 23 24 26 26 26 27 34 72 99 100 98 94 100 98 94 89 87 88 77 84 94 86 74 66 70 86 70
10 11 13 13 14 11 13 16 13 16 18 15 12 12 15 22 26 26 28 30 31 27 27 31 44 75 99 100 97 97 100 100 99 93 86 85 82 94 94 86 71 89 96 91
12 12 13 14 14 16 15 16 14 18 19 20 19 13 14 20 27 32 35 35 33 33 31 33 39 54 83 97 100 100 98 100 99 95 95 92 88 93 99 92 80 99 93 88
13 14 16 16 16 17 17 18 16 18 21 20 22 18 14 18 27 36 44 39 40 40 40 39 41 47 61 80 94 100 100 100 100 100 100 92 93 100 100 94 94 98 88 91
14 16 17 15 17 17 17 19 20 19 22 22 25 27 16 16 22 31 46 50 51 52 48 45 46 48 50 58 76 93 100 100 100 99 97 93 96 93 93 90 96 93 79 86
15 17 18 16 20 19 19 18 21 21 22 23 22 30 30 20 20 26 38 61 64 69 74 71 58 55 61 63 66 72 75 84 98 92 93 100 98 99 96 95 98 94 88 87
18 18 19 20 19 20 21 20 22 23 22 23 23 23 40 34 24 20 27 27 58 82 85 97 97 81 72 72 78 89 88 88 88 92 96 99 98 100 100 98 100 95 91 90

GFSNW_250_rhum_039.txt.gz
RH
10 10 9 8 8 9 12 10 9 8 9 11 12 16 21 29 37 53 56 68 74 62 76 70 54 45 63 72 76 70 64 57 54 76 84 91 97 100 81 88 91 98 95 87
11 11 10 8 8 10 13 12 11 9 11 14 14 24 25 39 50 71 84 93 100 100 100 100 100 97 88 81 70 70 72 86 90 82 87 89 86 86 90 94 99 89 92 94
12 12 11 9 9 11 13 13 13 11 13 15 17 20 37 49 66 76 88 85 88 95 98 96 99 97 94 95 94 100 96 99 98 92 82 83 85 88 96 89 85 82 89 74
11 12 11 10 10 11 13 14 13 13 14 17 20 23 24 44 65 76 77 78 87 97 85 78 86 87 91 87 82 78 78 77 69 69 68 62 70 81 78 84 90 88 99 97
12 12 11 10 11 12 13 14 14 13 16 17 20 25 23 36 53 66 74 78 83 89 92 90 86 75 73 81 90 85 93 92 86 82 71 83 97 99 100 100 100 99 100 98
11 10 11 10 11 13 14 13 15 14 15 19 21 31 31 29 42 56 67 74 80 85 82 79 86 97 95 96 98 96 86 95 100 93 90 98 98 98 95 99 100 99 84 79
9 9 11 11 10 13 14 13 14 16 17 18 24 26 34 39 35 43 57 68 79 79 84 74 88 91 98 100 100 100 100 94 84 73 67 59 64 83 98 100 98 88 82 82
9 9 10 10 10 12 14 13 13 16 18 21 21 26 33 44 45 46 48 62 73 81 82 77 85 85 95 91 76 65 59 57 60 68 71 84 96 100 89 100 100 99 94 82
8 8 9 9 10 11 12 11 12 13 14 23 29 23 28 36 46 59 58 59 67 76 78 80 89 93 89 80 73 73 71 70 78 86 96 94 89 87 94 99 86 90 93 83
8 8 9 8 9 10 10 10 11 12 11 14 24 30 24 28 42 54 63 69 78 79 80 82 91 94 93 89 89 89 88 84 87 90 87 83 86 87 90 97 88 86 96 71
8 8 8 8 8 8 9 10 10 11 11 11 13 20 30 24 29 36 55 71 84 83 83 79 90 94 100 96 99 100 100 95 92 86 82 88 92 93 87 99 100 89 99 67
7 7 7 8 8 7 8 9 10 11 11 10 13 12 17 23 25 28 32 52 85 91 83 79 86 93 98 100 98 97 93 87 92 75 81 86 90 100 94 100 96 94 87 71
6 6 7 7 7 7 8 7 9 10 11 11 11 10 12 18 20 22 32 27 45 94 90 84 85 87 92 96 97 94 88 84 81 81 80 79 83 80 85 90 96 98 83 77
6 6 6 7 7 6 8 7 7 9 10 11 11 11 11 11 17 20 22 31 24 55 99 88 90 91 92 95 99 93 90 86 83 81 76 80 92 93 96 93 80 90 84 81
6 6 7 6 7 6 7 7 6 8 8 8 8 9 10 11 12 16 23 29 22 28 67 94 87 92 99 100 97 89 100 100 99 86 92 96 85 70 70 83 89 91 93 83
6 5 7 6 6 6 7 6 7 6 6 6 6 8 8 7 6 8 19 26 18 20 39 83 91 93 93 100 89 92 100 99 96 80 88 61 56 56 65 78 77 87 92 81
6 6 6 6 7 7 7 6 6 6 6 6 6 7 5 4 4 6 10 14 13 16 22 60 87 96 93 88 76 100 100 95 99 74 71 58 70 70 73 82 84 88 76 76
5 6 6 6 7 7 7 7 7 7 7 7 7 6 5 4 5 6 8 9 11 16 21 38 78 98 94 86 78 100 100 95 100 87 77 70 89 77 74 70 78 74 67 81
6 6 6 7 7 8 8 8 9 10 7 7 7 8 6 5 6 7 8 10 13 18 22 26 60 87 100 88 89 100 100 92 100 98 90 77 77 91 78 79 80 78 79 83
6 6 7 7 9 9 9 9 8 9 8 9 10 11 8 8 8 10 12 18 20 22 22 24 38 78 100 89 88 100 100 91 98 99 92 77 79 88 93 97 97 89 84 78
6 7 8 9 10 10 9 9 10 11 11 11 13 14 12 12 15 18 20 22 24 24 23 23 26 55 90 98 89 97 100 98 100 100 97 86 78 82 82 78 79 82 86 84
7 8 9 9 10 11 11 11 12 13 15 13 15 18 17 13 14 19 22 24 26 27 26 25 24 32 62 97 97 93 100 100 100 100 100 100 100 94 86 84 77 80 89 89
10 12 11 11 13 13 14 13 16 16 18 17 17 19 21 18 15 17 24 28 29 29 28 29 28 28 36 63 99 100 100 100 100 100 100 100 100 99 87 84 92 89 84 87
11 13 14 13 16 15 15 16 16 16 19 18 18 19 22 22 17 18 23 30 35 37 34 31 32 31 33 36 62 99 100 100 100 100 100 100 100 100 100 100 97 90 92 85
13 14 15 18 17 17 18 17 17 18 22 23 22 20 22 26 22 16 25 29 37 40 39 36 39 37 35 36 41 60 94 100 100 100 100 100 100 100 100 93 89 87 96 86
16 18 18 19 19 19 20 21 18 18 23 25 24 22 22 25 29 22 19 27 26 39 44 46 47 49 45 40 42 51 66 81 99 100 100 100 100 100 100 100 95 88 96 90
18 19 22 21 20 21 21 22 19 19 24 27 26 27 24 24 29 31 24 18 22 39 52 61 64 68 64 58 51 50 54 68 85 97 100 100 100 100 100 100 100 93 92 100

GFSNW_250_rhum_042.txt.gz
RH
12 12 10 10 10 8 10 14 14 11 10 12 21 22 22 23 28 33 34 39 51 59 69 77 67 60 62 54 49 53 77 94 96 100 95 89 80 70 76 86 90 88 87 81
12 11 10 9 9 9 9 13 15 12 10 12 21 27 26 28 36 47 61 72 84 88 92 82 60 49 45 39 47 58 68 79 87 97 95 87 87 98 88 87 82 80 78 76
11 9 9 9 10 10 9 12 15 15 12 11 18 30 33 31 39 48 62 74 76 72 68 62 57 53 49 46 54 62 71 82 74 75 77 87 87 94 95 99 100 99 87 73
10 8 8 8 9 9 10 12 14 15 15 13 14 23 37 42 41 45 51 62 70 70 69 69 68 58 56 61 66 68 71 66 68 74 78 69 65 69 77 84 93 78 82 94
8 8 8 8 9 9 9 12 15 14 16 14 13 18 29 48 53 48 45 51 61 69 72 67 70 74 71 74 80 84 88 86 84 86 80 78 77 82 83 90 96 84 100 98
7 7 7 8 9 8 8 10 13 16 15 16 14 15 23 37 65 72 54 56 59 65 74 76 82 80 77 73 74 80 83 72 62 58 64 78 82 81 81 88 92 99 100 100
6 7 7 8 8 9 8 8 10 13 17 16 16 17 17 26 43 68 76 71 62 62 69 74 77 82 75 85 90 88 94 94 87 78 85 84 80 82 95 100 100 100 100 99
6 7 7 8 8 8 8 8 10 10 14 18 18 18 20 19 30 48 71 85 90 76 78 77 75 85 87 93 100 100 100 100 100 97 100 100 98 100 99 99 99 98 99 95
6 6 7 7 7 8 7 7 9 9 10 15 20 20 19 20 19 31 46 63 87 94 86 90 80 84 84 96 97 91 88 84 91 95 86 66 65 70 80 89 97 98 98 96
6 6 7 7 7 7 7 7 8 8 8 11 14 19 22 21 23 20 32 49 72 78 85 96 92 79 82 85 84 72 58 57 61 62 67 72 77 86 99 100 100 100 100 100
6 6 6 7 7 7 7 6 8 8 8 8 11 13 16 22 26 24 21 33 47 66 82 89 97 85 86 80 78 69 68 67 70 74 78 84 88 98 100 96 100 100 100 99
6 6 6 6 7 7 6 6 7 7 8 7 10 11 12 15 22 26 22 22 34 42 65 82 97 85 90 91 84 72 68 72 76 80 96 91 85 91 100 99 100 100 100 98
6 6 6 7 7 7 6 6 7 7 8 9 9 10 11 12 12 19 27 20 20 33 40 71 96 92 98 100 95 85 77 79 78 82 93 96 99 100 100 100 99 100 100 85
6 6 5 6 6 7 7 6 6 6 7 9 9 11 9 11 10 12 19 22 18 21 32 41 82 100 94 100 100 95 95 91 93 90 96 97 98 92 93 100 99 100 90 89
5 5 5 6 6 6 7 6 6 7 7 8 8 9 10 10 9 10 14 21 19 18 27 30 52 99 95 100 100 99 100 100 100 84 90 89 77 74 80 92 97 86 80 83
5 5 4 5 6 7 6 6 6 6 7 7 6 7 7 7 8 8 11 14 19 18 21 32 27 78 100 99 100 97 100 100 95 85 91 81 85 90 98 100 100 98 93 81
5 5 4 5 6 6 7 6 6 6 6 5 5 5 6 7 7 6 6 7 9 16 20 30 28 37 96 99 95 100 100 100 100 94 96 87 80 87 94 90 84 68 64 72
5 5 5 6 6 6 7 7 8 7 7 6 6 6 7 7 6 4 4 5 6 10 21 30 33 26 66 98 84 98 100 99 99 96 100 92 80 84 74 72 69 68 69 77
5 5 5 5 6 8 8 7 8 8 8 7 8 7 8 8 6 4 5 6 7 13 21 26 28 23 35 77 90 97 100 100 92 100 100 100 95 88 86 83 91 85 82 75
6 5 5 6 7 9 9 8 8 8 9 9 8 7 9 9 8 7 6 7 8 10 11 14 17 20 25 50 78 98 100 100 88 95 100 100 100 100 95 81 83 95 81 78
6 5 5 7 8 10 11 9 11 11 11 11 10 9 10 12 12 10 11 12 12 13 14 15 17 21 24 33 63 83 100 100 99 91 100 97 100 100 100 100 86 74 74 75
6 7 6 8 9 10 13 11 12 13 13 13 13 12 12 15 17 15 14 17 19 19 22 24 23 24 26 31 43 77 100 100 99 92 100 99 97 100 100 100 96 90 90 90
8 8 9 9 10 12 12 12 13 16 15 15 16 16 16 16 22 20 18 19 24 24 27 27 25 25 26 27 33 57 98 100 100 100 100 100 100 100 97 100 100 100 100 100
8 10 12 13 14 16 15 14 16 17 18 18 19 18 20 18 19 24 22 21 23 24 28 31 33 28 28 27 27 37 78 100 100 100 100 100 100 100 100 93 95 96 96 100
10 13 13 16 15 16 15 17 18 19 20 22 22 21 22 23 20 25 28 22 20 20 25 32 36 35 33 31 29 29 46 86 100 100 100 100 100 100 100 100 100 100 100 100
12 14 15 16 17 17 17 16 18 20 22 23 24 22 24 26 25 22 26 28 22 23 28 35 40 44 41 37 34 34 34 44 71 97 100 100 100 100 100 100 100 100 100 100
12 14 17 16 16 17 18 18 19 22 24 26 26 26 24 29 28 24 23 25 36 33 32 41 47 48 49 46 43 40 38 38 40 50 72 95 99 100 100 100 100 99 98 100

GFSNW_250_rhum_048.txt.gz
RH
12 9 10 9 8 8 8 8 8 8 8 8 8 10 10 16 27 30 30 25 23 24 26 27 30 28 28 26 29 31 45 35 40 39 37 34 33 35 44 42 57 67 73 100
11 9 10 10 8 8 8 8 8 9 8 9 9 9 10 14 24 33 41 41 33 32 31 33 36 32 35 38 38 42 43 52 54 53 49 40 33 29 32 39 42 56 75 81
10 9 9 9 8 8 8 8 8 8 8 8 10 11 11 11 19 32 43 50 54 50 46 50 54 57 47 42 44 42 42 37 41 47 55 56 56 53 43 53 76 80 87 96
10 9 10 8 8 8 7 8 8 8 9 8 9 11 12 13 13 25 37 45 55 64 68 73 68 58 48 58 53 48 47 44 46 60 65 88 96 85 79 66 62 74 91 88
11 9 10 8 8 8 7 7 8 8 8 8 8 10 12 12 14 21 37 48 52 61 72 79 78 70 65 48 49 53 54 59 64 66 76 74 85 99 98 98 96 90 88 77
11 8 9 8 8 7 6 6 8 8 9 9 8 9 10 14 14 15 22 36 55 61 67 74 73 75 74 70 69 51 45 56 68 68 64 65 67 67 82 91 97 98 91 90
12 7 7 7 7 6 6 6 6 7 8 9 9 8 9 13 15 16 17 24 38 60 75 77 78 74 82 85 84 87 84 69 62 70 75 79 72 70 70 71 72 76 85 88
12 7 7 7 6 6 6 5 5 6 7 8 9 9 9 11 15 14 16 18 25 35 59 74 84 84 81 85 84 89 91 94 96 97 99 99 99 90 82 76 76 80 87 86
12 8 6 6 6 5 5 5 5 5 6 8 9 9 10 11 12 16 16 16 18 25 40 52 72 91 94 84 94 97 97 96 98 99 99 99 99 96 98 99 95 95 98 100
10 8 6 6 5 5 5 4 4 5 5 6 8 8 9 12 14 12 14 17 18 19 24 36 56 73 97 97 90 93 99 100 100 100 100 100 93 89 89 93 95 96 100 100
9 7 6 5 5 5 5 4 4 4 5 6 7 8 8 9 14 13 14 15 18 22 23 23 35 62 82 91 95 95 90 95 100 92 95 100 95 99 95 96 95 99 100 98
7 6 5 4 5 4 5 5 4 5 5 5 7 8 8 8 12 14 16 17 15 17 20 23 24 38 62 77 95 98 89 87 97 95 93 98 93 99 98 96 100 100 99 97
7 6 5 4 4 4 4 5 4 5 5 5 7 8 8 8 11 11 12 14 18 18 17 19 25 26 36 66 81 96 97 84 87 87 66 68 68 67 69 71 79 85 90 96
7 5 4 4 4 4 4 5 5 4 5 5 6 7 7 8 9 10 10 10 14 17 20 18 21 24 27 43 67 88 92 87 86 78 65 66 73 73 74 79 91 100 100 99
6 5 4 4 4 4 4 4 5 5 5 6 6 6 6 7 8 8 9 10 10 12 15 22 20 21 26 28 50 76 82 82 88 86 77 76 79 81 83 84 92 92 97 93
6 5 4 4 4 4 4 4 4 5 5 6 6 7 7 8 8 7 6 6 8 10 11 16 22 18 21 27 30 51 79 78 83 94 86 83 89 82 84 87 87 88 96 100
5 5 4 5 5 4 5 5 5 5 5 6 7 8 7 7 8 7 7 7 8 8 10 13 16 16 18 25 25 26 72 80 79 92 89 86 99 90 80 83 88 85 88 99
5 5 5 5 5 5 5 5 5 5 6 7 8 7 8 7 6 7 6 7 7 8 8 8 12 14 21 24 18 24 50 82 75 78 89 88 93 100 94 92 94 91 89 95
4 5 5 5 5 5 5 5 5 6 7 8 9 8 9 7 6 6 6 6 6 7 6 6 9 14 20 16 19 23 33 66 78 79 80 86 90 96 98 94 100 97 100 100
5 5 6 6 6 6 6 6 6 8 9 10 10 10 10 9 8 8 7 7 8 7 6 6 7 8 10 18 23 24 27 41 78 80 82 83 87 80 82 96 96 100 100 100
5 5 6 6 7 7 7 7 8 9 10 12 13 11 11 11 10 10 9 9 9 9 7 7 6 6 11 14 20 26 27 32 51 86 82 75 84 93 87 95 98 96 98 98
6 6 6 7 9 8 8 8 10 12 14 15 16 14 14 12 11 12 12 12 13 13 11 9 9 12 11 14 17 24 29 32 39 69 89 84 82 98 98 96 97 96 92 90
7 6 7 8 9 10 9 8 11 15 16 17 21 17 17 16 15 14 14 14 14 17 16 17 15 12 12 14 18 23 29 33 38 43 87 94 88 98 100 100 100 100 96 93
8 7 9 10 10 10 10 10 12 15 16 18 22 22 18 19 20 19 18 17 18 21 21 19 21 22 23 19 15 16 25 36 44 45 55 90 99 97 100 100 100 98 98 96
8 8 9 10 11 10 10 11 14 16 18 19 22 25 22 21 22 22 20 17 19 20 25 24 21 22 26 28 26 25 20 20 30 44 47 60 100 100 100 100 100 100 100 99
9 7 9 11 11 11 10 12 15 17 17 20 23 24 25 26 24 24 26 24 32 30 22 24 26 21 22 26 29 30 28 26 22 24 32 38 73 100 100 98 99 100 100 99
8 9 10 10 11 11 11 12 16 17 18 21 22 25 27 30 29 22 21 21 37 35 31 29 26 30 24 24 29 33 34 32 28 27 26 29 36 69 98 100 100 98 96 95

GFSNW_250_rhum_051.txt.gz
RH
24 25 15 10 7 5 7 8 7 8 9 10 10 8 8 10 15 20 24 24 22 21 24 26 30 34 31 31 30 29 28 24 27 26 24 23 24 26 27 32 36 45 61 66
30 22 16 9 7 6 6 7 7 7 7 9 10 9 8 9 12 21 28 34 33 27 26 26 27 28 29 32 36 36 37 34 41 39 36 36 32 30 29 28 31 39 40 58
39 22 23 11 7 6 5 6 7 6 6 9 9 10 8 8 11 14 27 38 43 52 48 44 40 32 27 28 29 32 38 31 36 43 47 46 41 38 42 38 38 39 39 51
31 23 21 12 7 6 5 6 6 6 6 7 9 10 9 8 11 12 18 30 41 44 54 62 62 60 54 45 38 35 35 35 34 38 38 42 46 50 47 46 40 43 36 39
56 23 24 14 7 6 5 6 6 6 6 6 8 10 10 9 10 13 14 21 37 49 58 64 62 58 59 46 47 44 45 47 41 42 51 61 64 67 60 61 60 49 52 49
58 22 19 13 8 6 5 5 6 5 6 5 6 8 10 10 9 11 13 16 25 40 52 61 67 62 58 60 51 45 46 45 44 38 42 54 64 72 74 62 56 62 62 59
46 23 17 10 8 7 6 6 6 5 6 5 6 7 9 10 10 10 13 14 17 28 40 54 60 64 61 58 59 58 50 39 49 55 58 65 58 66 77 84 86 83 79 100
36 20 13 9 8 6 6 6 6 5 5 5 5 6 8 9 10 10 11 13 14 18 28 46 53 60 71 66 61 60 62 71 64 64 73 66 75 75 78 78 88 96 98 93
21 12 11 8 8 6 6 5 6 5 5 5 5 5 7 8 10 10 10 12 15 16 19 28 52 61 60 72 68 67 67 69 83 93 92 89 88 82 79 80 80 81 84 87
14 11 10 8 7 6 5 5 5 5 5 5 5 5 6 8 9 10 10 13 14 17 18 21 32 51 71 68 75 78 82 94 87 94 92 92 90 92 93 90 90 85 86 88
13 11 9 7 6 6 5 5 4 5 5 5 5 5 6 7 9 10 10 11 13 15 16 17 22 33 58 72 74 78 94 94 94 100 96 86 83 84 87 90 88 94 92 99
15 9 8 6 6 5 5 5 4 5 5 5 5 5 6 7 8 10 11 12 10 13 15 16 19 22 31 55 82 84 76 91 97 95 95 100 94 92 96 82 78 83 93 99
9 8 7 6 6 5 5 5 4 4 4 5 5 6 6 7 7 9 11 11 12 13 13 15 19 22 23 30 59 81 93 80 87 94 94 96 97 100 95 83 86 86 84 85
11 9 8 7 6 5 5 4 4 4 4 5 6 6 7 7 8 9 10 9 10 11 14 14 14 17 23 26 29 49 92 91 76 79 88 92 92 88 94 100 99 90 92 90
10 8 8 8 6 6 4 4 4 4 5 5 6 6 7 7 8 8 9 10 10 10 11 13 16 16 16 21 28 31 42 81 88 73 76 85 82 68 72 78 74 74 77 86
8 8 8 7 7 6 5 4 4 5 5 5 6 6 7 7 8 8 9 9 9 8 9 12 13 19 17 19 25 23 28 51 86 83 74 82 71 65 62 64 68 71 80 86
8 9 8 8 7 6 6 5 5 5 5 6 7 7 8 8 8 8 10 8 7 8 8 10 12 13 17 22 27 16 30 30 56 82 77 84 76 78 78 78 80 83 79 78
9 8 9 8 7 7 6 6 5 6 6 7 8 8 9 8 8 8 7 9 8 7 7 8 8 10 14 22 18 17 25 31 31 64 79 89 91 87 85 84 86 92 93 89
10 10 9 9 8 7 7 6 6 6 7 8 9 9 10 9 8 8 7 8 8 8 8 8 9 10 14 15 14 15 20 26 29 34 72 84 92 98 87 85 87 87 94 94
10 11 9 10 7 6 7 7 7 7 9 9 10 11 11 10 9 9 8 7 8 7 7 7 8 7 8 9 10 15 16 21 28 28 45 73 86 95 98 92 94 95 88 92
10 10 9 9 7 7 8 7 8 8 9 10 10 12 14 11 11 12 10 9 8 8 8 8 8 7 7 7 9 12 14 18 27 32 33 50 82 85 100 100 100 100 97 86
9 9 9 8 7 7 8 8 8 9 11 13 13 14 17 13 11 12 11 11 10 11 10 11 10 9 8 8 8 10 12 18 26 30 29 34 58 91 96 100 100 100 100 98
9 10 8 8 7 7 8 9 9 10 12 14 15 15 20 17 14 16 13 12 14 13 14 14 13 14 12 10 9 10 12 14 22 27 28 27 45 77 97 100 100 100 96 92
9 8 9 8 7 7 8 9 10 11 13 16 18 17 20 22 15 18 18 15 18 18 17 16 18 17 17 15 13 13 13 15 20 27 32 31 33 54 84 100 100 100 100 100
9 8 9 8 7 8 8 9 10 11 14 16 19 19 21 26 21 20 20 18 23 21 20 21 22 22 21 19 20 23 20 17 19 23 30 32 32 37 61 86 100 100 100 97
9 9 9 8 8 9 8 9 10 11 14 17 19 21 23 29 28 22 20 19 27 24 22 23 23 25 26 25 18 23 29 27 25 21 25 30 33 37 43 58 85 99 100 100
9 9 9 8 8 9 9 10 10 11 14 17 19 23 24 29 30 26 22 18 33 32 28 27 24 24 27 30 29 21 25 38 34 30 27 23 30 40 45 47 52 84 98 100

GFSNW_250_rhum_054.txt.gz
RH
25 43 55 64 38 14 10 6 4 5 6 6 7 6 7 7 8 10 14 18 16 19 22 20 23 29 31 29 28 27 26 26 24 24 22 19 17 16 15 16 17 18 18 23
35 41 46 58 44 21 10 7 5 5 6 6 7 7 7 7 8 10 11 17 20 20 19 21 23 25 27 28 28 27 26 24 24 25 25 24 20 18 19 17 18 20 20 23
33 44 46 44 33 20 10 8 5 5 6 6 6 7 7 7 8 8 11 14 21 26 30 26 27 26 28 29 26 26 27 27 28 34 33 29 28 22 22 22 26 24 23 24
26 36 36 40 48 20 12 8 5 5 5 5 6 7 6 7 7 8 9 12 15 25 34 38 40 42 45 33 34 32 30 25 25 33 30 35 36 32 28 29 24 25 24 27
26 32 29 28 34 15 10 8 5 5 5 5 5 6 7 7 7 8 9 11 14 18 26 35 36 38 41 33 33 33 29 27 28 29 36 34 32 42 44 37 29 29 26 27
29 24 28 28 28 12 9 6 5 5 5 5 5 5 6 7 7 7 8 9 13 14 23 32 38 43 48 50 53 37 31 33 32 32 27 31 51 46 39 40 40 36 42 25
27 22 25 20 18 12 8 6 5 5 5 5 5 5 6 6 7 7 8 9 10 14 17 27 37 45 47 51 57 55 45 29 37 39 45 57 41 40 47 50 52 55 44 47
18 17 17 18 13 10 8 7 7 6 4 5 5 5 6 6 7 7 8 9 10 11 16 20 27 47 55 50 53 62 61 50 35 38 63 53 50 51 47 50 63 62 59 68
18 16 13 14 11 9 8 6 7 6 5 4 5 5 6 7 7 7 7 8 10 10 14 18 22 33 49 61 53 56 63 66 64 42 42 63 64 64 59 60 63 72 75 74
21 12 10 12 9 8 8 8 7 6 5 4 5 5 6 6 7 8 8 8 9 10 13 16 20 22 31 47 64 69 58 62 66 73 67 53 45 63 66 77 90 83 78 80
12 9 13 9 10 10 10 7 6 5 5 4 5 5 6 6 8 8 8 8 9 10 11 13 16 20 21 24 46 78 78 65 64 72 71 73 67 69 75 74 60 68 81 84
12 8 7 13 9 11 7 7 7 6 5 5 5 5 6 6 7 8 9 8 8 10 12 11 15 17 20 24 29 49 78 84 76 76 80 74 76 72 78 74 81 80 79 80
10 7 8 10 14 10 6 6 6 6 5 5 5 5 6 6 7 8 8 9 9 10 13 15 18 19 19 22 25 27 67 80 89 87 79 83 89 87 97 93 80 74 79 90
10 5 8 8 12 16 13 6 5 6 5 5 5 5 6 7 7 8 8 9 9 10 12 15 18 20 20 20 23 26 34 53 72 84 91 91 100 100 99 100 100 100 84 76
10 6 10 12 16 15 12 14 6 7 6 6 6 6 7 7 8 8 8 8 8 11 14 14 16 16 20 19 23 26 23 28 49 78 90 96 98 98 94 96 98 93 100 95
19 13 14 11 12 11 11 15 10 7 6 6 6 6 7 8 9 9 9 9 9 9 11 13 13 14 16 16 19 24 20 24 29 43 65 98 100 96 95 93 89 86 87 100
17 17 14 16 14 10 12 16 15 6 6 7 7 6 7 8 10 10 9 9 9 11 12 10 10 11 12 13 23 20 14 20 27 28 36 70 100 95 92 90 80 66 74 89
17 17 22 11 11 9 18 25 13 7 7 7 7 7 7 9 11 10 9 9 10 12 10 10 10 10 11 11 17 17 16 20 24 26 30 37 68 99 93 94 81 67 63 64
20 12 12 11 10 28 35 22 7 7 8 8 7 8 9 10 12 11 10 9 9 11 11 10 9 8 9 9 10 14 17 18 21 24 29 34 38 74 96 88 83 72 74 76
15 15 10 15 26 18 61 53 9 8 8 8 8 10 10 11 13 12 10 10 9 10 10 10 9 9 9 10 11 14 17 19 21 24 27 30 34 38 83 91 91 80 83 84
18 9 17 18 17 17 57 9 8 9 8 9 10 11 12 12 14 14 11 11 10 10 9 9 9 10 10 9 9 9 9 12 17 21 20 23 30 34 49 98 96 95 86 87
18 21 16 22 16 34 36 9 8 8 9 9 10 12 13 13 14 16 12 12 12 13 11 10 9 10 10 9 8 7 7 8 12 14 18 20 27 35 39 71 100 100 100 92
23 23 18 15 21 36 14 9 8 9 9 9 11 12 14 15 15 19 14 12 13 14 12 11 12 12 12 11 11 10 9 8 9 12 15 17 24 30 34 44 86 99 100 100
38 24 16 11 50 20 11 9 8 9 9 10 11 13 14 16 16 19 16 13 14 17 16 14 15 14 15 15 15 15 13 11 11 11 12 14 21 28 33 36 51 89 100 100
39 33 20 22 14 11 11 9 9 9 10 10 11 13 14 15 18 19 20 14 16 21 18 18 18 19 18 17 21 20 18 17 17 15 13 14 18 25 29 29 33 47 92 100
43 19 13 17 10 11 10 9 9 9 10 10 11 13 14 16 19 20 23 18 18 25 21 21 23 23 25 22 21 23 23 18 20 23 21 18 19 22 28 32 32 34 53 92
11 15 11 10 10 11 10 10 10 10 10 10 10 13 15 17 20 20 20 20 24 26 26 23 22 24 28 28 28 25 27 27 21 20 25 28 27 24 27 33 34 37 38 47

GFSNW_250_rhum_060.txt.gz
RH
60 71 54 39 36 34 35 64 64 47 29 26 11 7 5 5 5 5 5 6 7 10 21 18 14 12 10 14 18 23 26 28 29 31 27 23 23 24 21 21 25 24 22 19
61 62 48 35 36 35 35 57 84 67 42 33 19 6 7 5 5 5 5 6 6 8 11 24 20 17 16 16 16 19 22 26 28 25 24 23 24 21 18 17 19 21 21 20
69 53 40 38 31 32 30 46 65 76 62 40 25 10 6 6 5 5 6 6 6 8 9 14 23 25 19 19 20 20 21 22 23 22 21 19 18 18 18 18 17 17 18 17
66 47 36 37 31 34 29 36 46 71 58 41 28 15 9 6 5 4 6 6 6 7 9 10 16 26 31 23 20 21 22 23 23 23 22 21 21 19 16 16 16 16 16 17
55 46 33 34 33 33 31 33 43 54 55 45 36 21 8 6 5 4 4 6 6 7 8 10 12 19 28 36 33 24 23 24 24 26 23 23 25 21 17 17 16 14 16 17
46 38 32 38 33 36 30 29 36 42 48 50 37 34 12 8 6 5 4 6 6 7 7 9 13 16 20 27 36 43 39 26 23 23 24 26 27 23 24 20 20 19 19 16
39 32 29 35 31 40 31 24 32 39 50 43 47 33 16 9 6 5 5 5 7 7 7 7 12 14 18 26 34 43 53 52 46 29 25 26 24 24 25 24 22 26 21 19
33 28 27 35 31 40 34 25 28 36 56 47 52 28 22 10 7 5 5 5 6 7 8 8 8 10 12 20 24 35 55 62 63 58 50 33 24 23 26 29 27 31 31 30
28 31 25 34 32 37 38 29 26 34 51 54 44 30 20 12 7 5 5 5 6 8 8 9 9 10 13 17 18 24 33 44 52 60 63 58 41 35 33 31 29 30 34 41
26 26 26 29 34 33 30 24 24 32 49 59 50 23 19 10 6 5 5 5 6 7 8 9 9 10 13 16 19 24 24 31 42 57 61 61 65 64 48 38 32 34 39 43
22 19 23 30 34 34 28 24 26 27 42 56 44 31 21 12 7 5 5 5 6 7 9 9 10 10 11 14 19 20 24 28 33 43 44 60 65 73 68 61 52 45 42 43
19 14 23 26 36 30 32 19 28 28 38 53 46 31 13 14 8 6 5 6 6 8 9 9 11 12 12 13 16 21 24 24 27 35 45 54 64 77 82 76 73 61 53 52
21 16 19 24 25 30 35 18 24 26 38 39 49 40 20 12 9 6 5 6 6 8 9 10 11 12 14 15 14 21 24 27 29 34 40 54 64 72 86 92 85 84 79 68
33 21 22 20 21 25 28 17 21 26 34 39 52 35 18 18 9 7 6 6 7 8 9 10 11 12 13 15 18 20 26 33 26 27 34 52 50 57 76 89 94 92 88 85
45 30 26 20 16 20 26 18 19 22 26 38 56 36 25 26 10 7 7 7 7 8 10 13 14 15 14 14 16 27 21 23 31 28 33 32 43 53 62 88 97 93 94 96
52 36 31 23 17 18 19 26 20 23 23 32 48 54 63 30 10 8 8 7 8 9 10 13 15 14 14 19 23 44 28 26 33 33 32 37 35 40 44 62 88 99 97 93
67 44 35 32 24 16 13 21 22 27 30 31 39 45 48 32 24 9 9 8 9 10 11 12 15 15 16 24 32 58 24 19 25 32 29 33 33 39 39 42 58 74 91 98
69 52 40 44 28 17 12 22 24 26 30 29 54 74 56 52 46 10 10 9 10 11 12 14 14 15 15 18 23 24 18 18 17 21 22 28 31 31 38 37 39 49 70 85
71 62 58 46 34 18 16 19 26 34 35 28 44 57 82 83 68 10 11 10 10 12 12 14 15 13 13 14 13 14 14 16 16 19 20 21 24 24 30 39 40 38 44 55
86 65 62 49 34 24 28 32 32 30 31 40 48 53 71 86 50 10 10 10 11 12 12 14 14 13 12 13 13 12 11 13 14 12 14 16 17 19 24 29 39 38 35 38
93 79 64 40 41 37 37 36 40 42 34 33 49 59 77 89 78 11 11 10 11 13 14 14 14 16 14 12 11 12 12 11 11 13 14 15 14 15 17 22 29 35 37 32
92 73 52 57 55 47 42 46 38 20 46 47 60 77 71 93 90 14 12 11 11 12 15 14 15 16 15 15 15 13 12 11 11 11 12 14 15 16 17 19 24 29 32 31
78 76 76 53 59 49 55 49 36 38 43 41 56 65 64 73 60 11 12 11 11 12 14 16 13 16 16 15 16 16 14 12 12 12 11 11 12 14 16 18 21 26 30 33
86 84 72 61 63 61 59 45 54 41 39 45 45 79 99 92 32 11 12 12 11 12 13 16 15 15 19 18 18 18 16 15 14 14 13 12 10 10 11 13 18 21 23 27
89 90 72 63 68 67 59 51 48 49 45 60 62 72 76 42 12 11 11 11 12 12 12 15 17 14 15 22 19 21 19 16 16 18 18 17 15 12 11 12 12 13 15 19
99 83 70 80 72 66 58 53 54 40 36 62 64 74 86 51 10 10 11 11 12 12 12 14 16 17 15 19 22 21 23 21 20 19 22 22 21 20 18 16 14 14 14 15
92 87 72 76 74 72 55 48 56 46 71 66 66 84 88 31 11 10 10 10 11 12 12 14 16 18 15 16 20 26 25 24 24 24 25 26 26 24 23 24 24 22 18 16

GFSNW_250_rhum_063.txt.gz
RH
83 68 58 66 62 60 43 39 45 47 49 65 25 15 24 17 9 8 6 6 7 7 7 10 12 13 13 13 16 18 22 27 37 47 46 42 40 31 27 28 31 28 24 20
86 80 57 66 63 57 38 39 42 43 42 58 57 20 17 20 12 9 8 6 6 7 8 9 15 16 15 14 14 14 16 17 21 30 34 36 40 41 36 28 26 29 28 28
85 82 58 67 65 55 39 37 41 44 46 55 62 38 21 25 16 9 8 6 6 7 8 9 11 16 18 17 17 17 15 14 14 16 15 17 22 23 22 24 23 24 26 26
85 76 53 62 70 52 39 38 43 43 44 60 48 54 26 20 18 10 8 8 6 6 7 8 11 16 21 23 21 20 19 19 17 16 15 16 16 16 16 17 17 19 20 24
84 73 51 58 63 51 34 40 42 48 38 48 58 67 46 25 26 10 8 8 6 6 7 7 9 12 21 27 30 27 24 25 24 24 20 20 20 20 20 18 15 15 15 18
86 71 55 54 65 47 37 37 44 44 39 39 45 61 38 27 21 9 8 8 7 6 8 8 8 11 15 22 33 42 41 32 29 28 26 24 26 20 19 19 19 18 20 16
93 69 55 57 66 40 40 41 51 44 42 36 47 61 48 33 23 8 7 9 7 7 8 8 8 9 12 18 27 37 49 57 55 38 38 35 25 24 24 22 20 22 22 18
85 58 52 67 57 43 46 48 51 46 39 39 53 59 63 35 22 12 6 7 6 6 8 9 8 9 10 13 18 29 40 46 54 61 63 59 45 37 31 28 21 24 26 22
74 47 49 64 50 44 44 50 47 45 36 37 46 64 57 52 24 12 7 8 6 6 6 9 9 9 10 17 15 18 31 46 55 54 58 59 57 62 52 42 30 33 32 30
56 40 49 56 48 44 49 48 46 38 36 38 42 53 53 42 21 10 7 8 6 6 6 8 10 10 10 13 16 17 18 24 36 47 55 52 61 64 60 51 42 39 37 40
34 38 45 43 46 50 54 47 45 36 33 31 40 50 50 54 27 12 6 7 7 6 6 7 9 10 10 11 13 18 22 22 23 31 39 43 54 58 59 60 54 47 50 51
34 43 44 39 46 50 53 52 45 39 37 32 37 44 55 42 29 17 8 6 6 7 8 8 10 11 12 12 12 18 23 24 21 24 26 29 49 62 70 65 60 63 62 56
44 43 38 32 36 48 52 50 48 38 33 32 34 41 49 48 41 17 19 8 8 7 8 9 10 11 12 12 12 15 22 30 27 24 25 30 37 53 65 65 68 64 69 76
53 45 39 34 28 38 51 46 43 35 31 38 36 38 51 60 53 34 20 11 8 9 8 9 11 12 12 13 15 17 24 32 23 28 25 27 27 34 51 67 73 82 81 77
76 59 51 41 32 32 42 36 39 30 33 33 36 37 52 55 41 24 46 14 9 10 10 9 11 12 13 14 17 20 17 19 33 34 35 36 29 28 31 46 69 83 91 97
83 73 71 56 39 30 32 36 33 30 30 26 32 39 39 61 44 52 22 27 16 10 11 12 12 12 14 16 17 20 15 13 13 21 20 39 33 32 26 31 41 49 73 93
83 80 74 65 47 28 32 26 33 30 28 26 30 43 34 58 70 80 53 36 17 9 11 12 14 14 16 17 20 19 19 15 14 21 27 32 28 30 44 37 32 36 42 62
93 82 79 71 57 36 33 26 32 27 27 25 26 36 48 54 70 82 57 48 18 10 10 12 13 14 16 17 22 24 22 18 17 17 16 22 25 28 30 36 38 41 38 38
94 96 95 74 62 44 41 29 26 28 30 32 31 39 51 49 62 72 88 65 23 11 11 13 13 15 17 19 21 23 24 23 18 15 16 15 17 20 27 25 28 31 41 40
100 100 91 82 63 49 37 33 40 27 29 30 37 38 45 47 64 62 84 59 34 12 11 12 11 12 14 16 17 18 19 17 17 16 16 15 14 14 18 22 27 27 27 36
100 100 91 71 66 57 46 44 39 32 26 28 31 43 55 50 62 75 81 60 40 12 12 12 12 12 13 13 14 16 16 15 14 14 13 14 16 16 16 17 20 25 28 31
100 100 88 72 60 60 51 40 38 37 29 28 36 40 33 60 59 80 60 80 40 14 12 12 12 12 13 13 14 18 16 13 13 13 13 13 14 14 13 13 15 18 21 26
100 94 83 72 59 57 50 45 40 42 36 39 34 52 37 45 60 76 82 79 28 16 12 12 12 14 14 14 13 16 18 17 14 13 12 13 14 14 14 16 17 19 22 25
98 94 90 71 59 57 45 47 44 50 36 43 36 46 52 51 63 67 48 33 20 16 11 12 13 14 14 14 13 15 18 18 17 16 15 14 14 14 13 13 14 16 19 22
97 100 92 67 55 54 58 51 54 46 54 45 36 36 40 51 58 71 59 17 14 12 10 11 12 13 14 16 15 14 17 20 21 19 19 18 16 16 15 13 12 12 13 16
100 94 74 59 54 68 61 61 50 53 51 42 47 39 37 52 66 44 42 13 11 10 10 10 11 13 15 16 16 16 16 22 26 24 23 22 21 21 22 20 17 15 14 13
91 89 75 64 65 67 73 64 52 54 48 57 31 30 57 57 57 61 21 11 10 10 10 10 10 12 15 16 16 17 19 18 27 32 28 24 24 24 23 23 23 23 22 22

GFSNW_250_rhum_066.txt.gz
RH
96 95 90 96 96 83 88 53 70 53 41 39 50 58 56 18 16 19 9 8 8 7 7 7 7 11 11 10 10 14 17 24 32 46 42 46 40 36 30 28 34 37 32 36
98 96 95 96 83 87 72 55 71 54 39 42 41 54 65 29 18 20 11 8 10 8 7 8 9 10 13 13 12 10 11 15 23 31 30 36 42 52 46 41 34 37 37 39
96 97 99 86 96 87 77 52 72 48 35 36 39 56 60 62 16 20 14 10 9 9 7 7 8 8 11 16 16 14 13 12 13 15 22 27 35 32 33 28 37 38 32 32
98 93 100 99 97 98 89 71 71 46 30 35 40 47 64 66 46 17 12 10 10 8 8 6 8 8 10 13 18 20 18 17 16 16 15 15 16 18 22 29 30 24 28 30
100 97 94 98 100 99 96 70 69 46 37 39 42 47 60 68 67 19 13 10 9 7 7 7 8 8 9 11 16 19 22 18 20 20 20 19 20 21 19 18 19 21 23 25
100 100 90 100 98 91 87 70 65 44 38 39 50 45 61 66 68 43 13 9 6 7 6 7 7 9 10 11 14 20 26 30 22 22 23 25 27 21 21 20 18 18 19 17
100 98 95 100 96 95 80 62 65 41 39 40 46 43 54 57 67 60 23 13 7 7 7 7 7 9 10 12 15 21 25 41 48 34 29 33 24 24 29 30 26 23 21 18
95 96 94 97 96 94 71 62 55 44 42 46 43 47 55 58 66 76 26 16 7 7 7 7 7 8 11 10 13 16 25 34 44 48 51 44 27 27 29 30 23 30 33 26
98 100 99 96 91 82 66 63 51 45 51 46 43 40 49 55 69 69 50 18 10 7 5 7 8 8 10 12 12 13 17 27 37 37 50 58 46 53 54 50 35 38 35 28
97 100 100 90 83 74 69 62 49 52 50 47 51 46 46 45 65 75 56 21 11 8 6 6 7 9 10 12 12 13 16 18 25 26 40 38 56 70 64 66 67 53 42 31
100 92 96 85 70 73 69 61 52 57 50 50 45 44 36 39 54 69 61 27 17 11 8 6 7 9 11 12 12 13 15 19 24 30 35 31 49 60 65 67 67 66 60 44
90 90 97 79 80 83 70 64 53 56 54 53 48 48 39 37 48 62 73 41 20 13 10 6 7 8 12 13 14 14 15 16 18 25 25 26 29 43 48 67 74 71 64 58
94 91 90 69 73 66 64 62 56 57 62 60 60 44 40 36 42 56 56 45 24 14 10 7 7 8 10 13 14 15 14 17 18 24 28 26 26 32 46 47 54 82 85 72
91 80 74 64 64 79 62 55 58 58 60 64 62 44 44 38 40 57 54 70 40 20 12 8 7 8 10 12 15 18 16 17 15 17 22 30 28 28 30 37 46 59 80 90
92 79 62 64 80 78 61 61 61 65 65 62 58 45 46 41 40 50 64 69 42 27 13 10 8 8 10 14 18 19 16 17 17 17 17 31 28 32 30 30 32 36 47 72
85 74 75 79 74 58 62 62 59 57 58 61 58 45 41 41 42 49 64 72 54 35 18 11 9 9 11 14 18 13 17 22 24 27 22 24 27 40 43 40 33 33 37 45
88 84 92 78 74 65 60 54 51 48 51 58 50 39 38 38 33 47 59 79 80 42 25 14 10 9 11 13 15 19 20 20 22 23 23 21 22 27 28 35 43 47 35 32
98 87 82 80 73 62 50 43 43 43 48 56 42 40 40 36 38 52 64 86 88 50 28 19 13 9 10 12 14 17 21 21 20 20 22 23 17 21 24 27 31 34 41 45
97 92 89 83 77 68 59 49 51 46 48 41 32 34 41 32 41 51 60 74 85 59 37 19 15 10 10 12 13 16 19 20 21 23 23 21 18 16 18 20 21 24 27 34
100 100 88 82 80 73 69 58 64 64 50 43 32 32 36 36 43 56 56 74 89 86 38 15 15 12 9 11 13 15 18 19 20 22 26 24 18 15 17 17 18 18 20 23
100 100 92 80 77 76 85 78 67 57 55 50 36 36 30 35 42 59 61 81 94 86 55 18 12 12 10 11 12 12 14 15 17 17 21 22 18 15 14 15 15 16 20 24
100 100 99 94 89 94 84 78 67 62 58 59 46 32 21 34 39 45 61 81 94 96 43 21 10 11 10 10 12 12 13 14 15 16 18 17 16 17 16 15 14 14 14 17
100 100 100 98 87 87 82 88 73 70 63 64 60 40 22 30 41 50 61 78 92 88 52 17 10 9 10 10 11 12 12 12 14 17 17 16 17 16 16 15 14 15 16 19
100 100 100 86 85 84 92 85 83 74 68 60 57 36 30 34 41 49 59 76 96 98 50 11 8 8 10 9 10 12 12 12 14 18 20 18 17 16 17 16 16 15 16 17
100 100 100 100 86 81 84 92 88 87 69 66 57 32 28 35 44 52 63 77 98 92 53 8 7 7 9 10 10 12 13 13 14 17 21 23 21 18 18 18 17 16 15 14
100 100 100 86 79 88 86 85 90 77 76 66 51 45 39 40 53 55 74 85 98 89 43 9 8 7 8 10 11 12 13 14 14 16 22 26 28 25 22 20 19 18 18 17
100 100 98 85 87 94 88 94 83 82 74 57 52 48 39 45 55 58 72 87 100 96 26 10 7 8 8 9 10 10 11 12 14 14 18 29 33 30 30 27 24 23 23 23

GFSNW_250_rhum_069.txt.gz
RH
100 100 100 100 100 90 93 87 89 90 92 66 46 36 45 47 60 29 18 13 13 13 9 8 7 7 10 12 10 11 14 18 23 31 40 42 38 35 32 31 33 30 32 32
100 100 100 100 100 100 85 97 86 98 85 65 45 37 48 49 60 60 16 13 11 12 10 8 6 7 8 12 14 12 12 16 21 24 35 42 48 43 42 41 38 38 35 46
100 100 100 100 96 97 98 95 85 93 69 66 42 39 44 44 60 58 46 16 10 10 10 8 8 6 7 8 14 16 14 13 15 20 22 29 33 38 35 35 44 46 51 57
100 100 100 100 94 95 100 93 78 96 70 62 39 40 40 46 48 61 54 24 13 9 9 9 8 8 8 8 9 15 16 16 15 15 17 20 23 24 32 32 32 27 34 29
100 100 100 100 96 95 100 79 90 92 74 53 37 40 43 45 49 64 53 40 18 13 9 7 8 8 8 8 10 13 18 18 16 16 16 16 18 21 23 25 30 31 26 27
100 100 100 100 97 100 100 89 96 87 67 48 37 40 48 44 46 58 55 49 26 14 12 9 6 8 8 9 9 10 16 24 24 20 18 18 19 16 18 18 18 20 22 23
100 100 100 100 94 100 98 97 85 83 68 46 44 41 47 43 45 55 61 59 32 16 10 11 8 7 8 9 9 10 11 19 24 23 26 23 18 20 23 23 21 22 26 23
100 100 100 100 100 100 90 96 96 82 60 49 45 44 50 49 50 51 62 62 43 24 12 9 10 7 8 9 11 10 11 13 26 26 32 37 28 25 24 24 22 30 29 26
100 100 100 97 100 96 99 100 82 78 57 51 41 50 51 50 51 48 60 67 52 29 12 11 8 7 8 9 10 11 11 13 17 22 27 31 22 33 49 48 35 33 30 26
100 100 100 98 99 100 100 87 88 75 60 53 54 53 51 56 54 44 53 65 61 30 16 10 9 8 6 9 9 11 12 13 16 17 25 20 24 42 49 57 64 61 55 43
100 100 100 98 100 100 96 87 83 72 58 54 57 50 56 61 58 50 51 56 67 38 20 12 9 8 7 7 9 11 14 15 16 20 23 21 22 35 45 59 63 69 77 69
100 100 100 100 100 100 79 79 74 65 65 56 54 46 57 65 60 57 46 49 76 54 24 17 12 9 8 8 9 11 13 15 15 15 18 25 25 30 34 38 44 48 62 67
100 100 100 100 100 91 73 88 71 64 79 61 60 51 60 67 60 59 56 46 72 59 34 21 15 13 10 8 8 11 13 15 16 16 16 20 28 30 37 36 35 41 48 58
100 97 100 100 91 73 99 83 71 75 76 65 56 60 67 68 62 61 60 44 60 71 54 24 18 15 12 10 9 11 12 14 17 18 20 30 25 28 28 33 37 37 42 51
92 99 100 90 87 99 98 85 73 74 70 69 64 60 60 68 68 63 60 48 41 58 67 35 21 14 12 11 9 8 11 16 20 23 26 26 21 24 23 25 29 38 44 42
99 100 97 100 96 100 94 81 70 68 73 72 65 63 57 71 68 61 60 51 40 50 77 62 30 17 12 11 10 9 15 20 19 18 20 23 23 24 27 28 33 42 40 44
100 100 97 100 100 97 92 78 65 67 76 72 77 67 71 72 64 56 60 55 45 58 81 73 52 21 14 10 10 10 11 14 20 22 23 25 27 27 26 32 31 28 44 55
100 100 100 100 100 98 85 74 71 71 70 68 63 65 64 63 64 61 62 59 45 51 81 74 69 25 16 11 10 10 10 12 15 20 25 30 31 35 36 35 35 32 26 33
99 100 100 100 100 98 84 80 71 65 62 58 54 59 57 55 58 57 58 58 53 51 75 85 87 55 23 12 10 10 10 11 13 14 20 27 32 34 34 33 32 32 29 25
100 100 100 100 98 91 88 73 72 61 54 53 47 49 54 52 52 54 54 58 55 54 68 86 79 85 66 14 8 9 10 10 11 14 15 16 19 22 23 20 18 18 23 28
100 100 100 100 97 83 80 75 66 64 72 64 54 57 45 38 48 46 45 54 58 57 63 79 81 60 36 13 8 7 8 10 11 12 14 16 18 18 19 18 18 17 18 20
100 100 96 86 83 98 93 74 78 83 83 73 71 63 54 37 43 47 40 50 56 53 68 74 78 72 47 17 9 7 7 10 11 11 12 14 16 16 19 20 17 16 15 16
100 100 96 94 87 86 87 82 87 79 76 82 81 75 61 48 44 48 39 45 44 48 71 81 86 89 40 14 14 6 7 8 11 11 12 14 16 16 17 18 18 17 15 14
100 99 78 81 92 100 100 90 89 81 82 88 85 84 62 48 52 52 40 43 48 48 66 80 90 89 33 14 14 7 7 8 9 10 11 12 15 15 16 17 17 16 17 16
100 100 100 100 100 100 100 90 88 91 88 90 87 83 68 55 58 62 50 47 45 52 69 69 68 94 42 13 13 8 7 8 8 9 10 11 14 17 16 16 17 19 20 19
100 100 100 100 100 100 100 98 90 90 100 90 95 98 72 60 62 67 64 60 57 53 68 70 93 88 60 13 13 6 6 8 8 9 10 10 12 16 17 19 18 18 20 22
100 100 100 100 100 94 91 88 88 99 100 100 100 96 60 58 82 80 69 71 58 57 64 93 92 61 48 12 10 7 6 7 8 8 8 12 13 14 17 19 21 24 24 23